Regional Weather Roundup
Issued by NWS Goodland, KS

Home | Current Version | Previous Version | Text Only | Print | Product List | Glossary Off
Versions: 1 2 3 4 5 6 7 8 9 10 11 12 13 14 15 16 17 18 19 20 21 22 23 24 25 26 27 28 29 30 31 32 33 34 35 36 37 38 39 40 41 42 43 44 45 46 47 48 49 50

000
ASUS43 KGLD 272308
RWRGLD

GOODLAND FORECAST AREA HOURLY WEATHER ROUNDUP
NATIONAL WEATHER SERVICE GOODLAND KS
500 PM MDT TUE JUN 27 2017

...OFFICIAL OBSERVATIONS...

CITY           SKY/WX    TMP DP  RH WIND       PRES   REMARKS
GOODLAND KS    PTSUNNY   91  50  24 VRB6      29.73F
HILL CITY KS   SUNNY     96  55  25 S18G32    29.72F
IMPERIAL NEB   MOSUNNY   94  46  19 S16G22    29.66F
MCCOOK NEB     SUNNY     97  53  22 S24G37    29.66F
AKRON CO       LGT RAIN  85  41  21 S35G44    29.75F
BURLINGTON CO  CLOUDY    90  45  21 S12G17    29.77F
LIMON CO       CLOUDY    89  38  16 S16G28    29.83F
$$

...UNOFFICIAL OBSERVATIONS...

CITY           SKY/WX    TMP DP  RH WIND       PRES   REMARKS
LENORA KS        N/A     94  32  11 MISG        N/A
NORTON KS      SUNNY     95  45  17 S21G29    29.70F
SHARON SPRINGS   N/A     93  51  23 S22G33      N/A
TRENTON NEB      N/A     97  32  10 S12G18      N/A
KIT CARSON CO    N/A     97  46  17 MISG        N/A
YUMA CO        FAIR      88  37  16 S15G46    29.74S
$$




USA.gov is the U.S. government's official web portal to all federal, state and local government web resources and services.